• In Hungary
  • List of Countries
  • For 7 days
  • Water Temperature
  • Satellite Maps
  • Weather Map
  • News
  • Weather Widgets
  • user-avatar
    Login

    Hourly Weather Marsa Alam

    Today, 20 September, Wednesday

    Time Temperature Precipitation Wind Pressure Humidity
    00:00 +30°C° 0 mm 1 mps 714 mmHg 24%
    01:00 +29°C° 0 mm 1 mps 714 mmHg 24%
    02:00 +28°C° 0 mm 1 mps 714 mmHg 23%
    03:00 +28°C° 0 mm 1 mps 714 mmHg 24%
    04:00 +28°C° 0 mm 1 mps 714 mmHg 24%
    05:00 +27°C° 0 mm 2 mps 714 mmHg 25%
    06:00 +29°C° 0 mm 2 mps 714 mmHg 23%
    07:00 +31°C° 0 mm 2 mps 715 mmHg 21%
    08:00 +32°C° 0 mm 2 mps 715 mmHg 18%
    09:00 +35°C° 0 mm 2 mps 715 mmHg 17%
    10:00 +36°C° 0 mm 3 mps 715 mmHg 15%
    11:00 +37°C° 0 mm 3 mps 715 mmHg 13%
    12:00 +38°C° 0 mm 3 mps 715 mmHg 14%
    13:00 +38°C° 0 mm 4 mps 715 mmHg 14%
    14:00 +40°C° 0 mm 4 mps 714 mmHg 15%
    15:00 +38°C° 0 mm 4 mps 714 mmHg 19%
    16:00 +36°C° 0 mm 4 mps 714 mmHg 22%
    17:00 +35°C° 0 mm 4 mps 713 mmHg 26%
    18:00 +34°C° 0 mm 3 mps 714 mmHg 30%
    19:00 +33°C° 0 mm 3 mps 714 mmHg 34%
    20:00 +31°C° 0 mm 2 mps 714 mmHg 38%
    21:00 +30°C° 0 mm 2 mps 714 mmHg 36%
    22:00 +30°C° 0 mm 2 mps 714 mmHg 35%
    23:00 +30°C° 0 mm 2 mps 714 mmHg 33%

    Tomorrow, 21 September, Thursday

    Time Temperature Precipitation Wind Pressure Humidity
    00:00 +30°C° 0 mm 2 mps 714 mmHg 31%
    01:00 +29°C° 0 mm 2 mps 714 mmHg 30%
    02:00 +29°C° 0 mm 2 mps 714 mmHg 28%
    03:00 +29°C° 0 mm 2 mps 713 mmHg 28%
    04:00 +28°C° 0 mm 2 mps 713 mmHg 27%
    05:00 +28°C° 0 mm 3 mps 713 mmHg 27%
    06:00 +30°C° 0 mm 3 mps 714 mmHg 24%
    07:00 +32°C° 0 mm 4 mps 714 mmHg 22%
    08:00 +34°C° 0 mm 4 mps 715 mmHg 19%
    09:00 +35°C° 0 mm 4 mps 715 mmHg 17%
    10:00 +37°C° 0 mm 5 mps 715 mmHg 16%
    11:00 +39°C° 0 mm 5 mps 715 mmHg 14%
    12:00 +39°C° 0 mm 5 mps 714 mmHg 13%
    13:00 +40°C° 0 mm 6 mps 714 mmHg 13%
    14:00 +40°C° 0 mm 6 mps 713 mmHg 12%
    15:00 +39°C° 0 mm 6 mps 713 mmHg 13%
    16:00 +38°C° 0 mm 6 mps 712 mmHg 14%
    17:00 +36°C° 0 mm 6 mps 712 mmHg 15%
    18:00 +35°C° 0 mm 5 mps 712 mmHg 16%
    19:00 +34°C° 0 mm 4 mps 713 mmHg 17%
    20:00 +33°C° 0 mm 3 mps 713 mmHg 18%
    21:00 +31°C° 0 mm 2 mps 713 mmHg 18%
    22:00 +31°C° 0 mm 2 mps 713 mmHg 17%
    23:00 +30°C° 0 mm 2 mps 713 mmHg 17%

    Day after tomorrow, 22 September, Friday

    Time Temperature Precipitation Wind Pressure Humidity
    00:00 +30°C° 0 mm 2 mps 712 mmHg 18%
    01:00 +29°C° 0 mm 2 mps 712 mmHg 19%
    02:00 +29°C° 0 mm 3 mps 712 mmHg 20%
    03:00 +29°C° 0 mm 3 mps 712 mmHg 21%
    04:00 +28°C° 0 mm 3 mps 712 mmHg 22%
    05:00 +28°C° 0 mm 3 mps 712 mmHg 23%
    06:00 +30°C° 0 mm 4 mps 713 mmHg 22%
    07:00 +32°C° 0 mm 5 mps 713 mmHg 21%
    08:00 +34°C° 0 mm 6 mps 714 mmHg 20%
    09:00 +35°C° 0 mm 7 mps 714 mmHg 20%
    10:00 +36°C° 0 mm 7 mps 714 mmHg 19%
    11:00 +39°C° 0 mm 7 mps 714 mmHg 18%
    12:00 +39°C° 0 mm 7 mps 713 mmHg 17%
    13:00 +39°C° 0 mm 7 mps 713 mmHg 17%
    14:00 +39°C° 0 mm 8 mps 712 mmHg 17%
    15:00 +39°C° 0 mm 7 mps 712 mmHg 17%
    16:00 +38°C° 0 mm 7 mps 712 mmHg 18%
    17:00 +36°C° 0 mm 7 mps 712 mmHg 19%
    18:00 +35°C° 0 mm 5 mps 712 mmHg 20%
    19:00 +34°C° 0 mm 4 mps 712 mmHg 22%
    20:00 +31°C° 0 mm 2 mps 713 mmHg 24%
    21:00 +31°C° 0 mm 2 mps 713 mmHg 24%
    22:00 +30°C° 0 mm 2 mps 713 mmHg 24%
    23:00 +30°C° 0 mm 2 mps 713 mmHg 24%

    23 September, Saturday

    Time Temperature Precipitation Wind Pressure Humidity
    00:00 +29°C° 0 mm 2 mps 712 mmHg 25%
    01:00 +29°C° 0 mm 2 mps 712 mmHg 26%
    02:00 +28°C° 0 mm 2 mps 712 mmHg 27%
    03:00 +28°C° 0 mm 2 mps 712 mmHg 28%
    04:00 +28°C° 0 mm 3 mps 712 mmHg 29%
    05:00 +27°C° 0 mm 3 mps 712 mmHg 29%
    06:00 +29°C° 0 mm 4 mps 713 mmHg 27%
    07:00 +32°C° 0 mm 5 mps 713 mmHg 25%
    08:00 +34°C° 0 mm 6 mps 714 mmHg 23%
    09:00 +35°C° 0 mm 6 mps 714 mmHg 22%
    10:00 +36°C° 0 mm 7 mps 714 mmHg 20%
    11:00 +39°C° 0 mm 7 mps 714 mmHg 19%
    12:00 +39°C° 0 mm 7 mps 713 mmHg 19%
    13:00 +39°C° 0 mm 7 mps 712 mmHg 18%
    14:00 +40°C° 0 mm 7 mps 712 mmHg 18%
    15:00 +39°C° 0 mm 6 mps 712 mmHg 19%
    16:00 +39°C° 0 mm 5 mps 712 mmHg 20%
    17:00 +37°C° 0 mm 5 mps 712 mmHg 21%
    18:00 +35°C° 0 mm 4 mps 712 mmHg 25%
    19:00 +34°C° 0 mm 3 mps 713 mmHg 28%
    20:00 +32°C° 0 mm 2 mps 713 mmHg 31%
    21:00 +31°C° 0 mm 2 mps 713 mmHg 32%
    22:00 +30°C° 0 mm 1 mps 713 mmHg 33%
    23:00 +29°C° 0 mm 1 mps 713 mmHg 34%

    24 September, Sunday

    Time Temperature Precipitation Wind Pressure Humidity
    00:00 +29°C° 0 mm 1 mps 712 mmHg 35%
    01:00 +28°C° 0 mm 1 mps 712 mmHg 36%
    02:00 +28°C° 0 mm 1 mps 712 mmHg 36%
    03:00 +27°C° 0 mm 1 mps 712 mmHg 37%
    04:00 +27°C° 0 mm 2 mps 712 mmHg 38%
    05:00 +26°C° 0 mm 2 mps 712 mmHg 38%
    06:00 +28°C° 0 mm 2 mps 713 mmHg 35%
    07:00 +29°C° 0 mm 2 mps 713 mmHg 33%
    08:00 +31°C° 0 mm 3 mps 714 mmHg 30%
    09:00 +33°C° 0 mm 3 mps 714 mmHg 27%
    10:00 +35°C° 0 mm 3 mps 714 mmHg 25%
    11:00 +36°C° 0 mm 3 mps 714 mmHg 22%
    12:00 +37°C° 0 mm 3 mps 714 mmHg 22%
    13:00 +37°C° 0 mm 4 mps 713 mmHg 23%
    14:00 +37°C° 0 mm 4 mps 713 mmHg 23%
    15:00 +37°C° 0 mm 3 mps 713 mmHg 26%
    16:00 +36°C° 0 mm 3 mps 713 mmHg 28%
    17:00 +35°C° 0 mm 3 mps 713 mmHg 31%
    18:00 +34°C° 0 mm 2 mps 713 mmHg 35%
    19:00 +32°C° 0 mm 2 mps 713 mmHg 39%
    20:00 +31°C° 0 mm 2 mps 713 mmHg 43%
    21:00 +30°C° 0 mm 2 mps 713 mmHg 43%
    22:00 +30°C° 0 mm 2 mps 713 mmHg 44%
    23:00 +30°C° 0 mm 2 mps 713 mmHg 44%

    25 September, Monday

    Time Temperature Precipitation Wind Pressure Humidity
    00:00 +29°C° 0 mm 2 mps 713 mmHg 44%
    01:00 +28°C° 0 mm 2 mps 712 mmHg 44%
    02:00 +28°C° 0 mm 2 mps 712 mmHg 43%
    03:00 +28°C° 0 mm 2 mps 712 mmHg 44%
    04:00 +27°C° 0 mm 2 mps 712 mmHg 46%
    05:00 +27°C° 0 mm 2 mps 712 mmHg 47%
    06:00 +28°C° 0 mm 3 mps 713 mmHg 44%
    07:00 +29°C° 0 mm 3 mps 713 mmHg 41%
    08:00 +30°C° 0 mm 4 mps 714 mmHg 38%
    09:00 +33°C° 0 mm 4 mps 714 mmHg 34%
    10:00 +35°C° 0 mm 3 mps 714 mmHg 29%
    11:00 +36°C° 0 mm 3 mps 714 mmHg 25%
    12:00 +37°C° 0 mm 3 mps 714 mmHg 23%
    13:00 +38°C° 0 mm 4 mps 713 mmHg 22%
    14:00 +40°C° 0 mm 4 mps 713 mmHg 20%
    15:00 +38°C° 0 mm 4 mps 713 mmHg 23%
    16:00 +37°C° 0 mm 4 mps 713 mmHg 26%
    17:00 +36°C° 0 mm 4 mps 713 mmHg 29%
    18:00 +35°C° 0 mm 3 mps 713 mmHg 32%
    19:00 +33°C° 0 mm 3 mps 713 mmHg 36%
    20:00 +31°C° 0 mm 3 mps 713 mmHg 39%
    21:00 +31°C° 0 mm 3 mps 713 mmHg 39%
    22:00 +31°C° 0 mm 3 mps 713 mmHg 38%
    23:00 +30°C° 0 mm 3 mps 713 mmHg 37%
    Show more